Year,Month,Day,Hour,Minute,Value (Times are PST for temperature in C)
2013,04,24,00,00,5.90
2013,04,24,00,01,5.90
2013,04,24,00,02,5.90
2013,04,24,00,03,5.90
2013,04,24,00,04,5.90
2013,04,24,00,05,5.90
2013,04,24,00,06,5.80
2013,04,24,00,07,5.80
2013,04,24,00,08,5.80
2013,04,24,00,09,5.80
2013,04,24,00,10,5.80
2013,04,24,00,11,5.80
2013,04,24,00,12,5.80
2013,04,24,00,13,5.80
2013,04,24,00,14,5.80
2013,04,24,00,15,5.70
2013,04,24,00,16,5.70
2013,04,24,00,17,5.70
2013,04,24,00,18,5.70
2013,04,24,00,19,5.70
2013,04,24,00,20,5.70
2013,04,24,00,21,5.70
2013,04,24,00,22,5.70
2013,04,24,00,23,5.60
2013,04,24,00,24,5.60
2013,04,24,00,25,5.60
2013,04,24,00,26,5.60
2013,04,24,00,27,5.60
2013,04,24,00,28,5.60
2013,04,24,00,29,5.50
2013,04,24,00,30,5.50
2013,04,24,00,31,5.50
2013,04,24,00,32,5.50
2013,04,24,00,33,5.40
2013,04,24,00,34,5.40
2013,04,24,00,35,5.40
2013,04,24,00,36,5.40
2013,04,24,00,37,5.30
2013,04,24,00,38,5.30
2013,04,24,00,39,5.30
2013,04,24,00,40,5.30
2013,04,24,00,41,5.30
2013,04,24,00,42,5.30
2013,04,24,00,43,5.20
2013,04,24,00,44,5.20
2013,04,24,00,45,5.20
2013,04,24,00,46,5.20
2013,04,24,00,47,5.20
2013,04,24,00,48,5.10
2013,04,24,00,49,5.10
2013,04,24,00,50,5.10
2013,04,24,00,51,5.10
2013,04,24,00,52,5.10
2013,04,24,00,53,5.10
2013,04,24,00,54,5.10
2013,04,24,00,55,5.10
2013,04,24,00,56,5.10
2013,04,24,00,57,5.10
2013,04,24,00,58,5.10
2013,04,24,00,59,5.10
2013,04,24,01,00,5.10
2013,04,24,01,01,5.10
2013,04,24,01,02,5.10
2013,04,24,01,03,5.10
2013,04,24,01,04,5.10
2013,04,24,01,05,5.10
2013,04,24,01,06,5.10
2013,04,24,01,07,5.00
2013,04,24,01,08,5.10
2013,04,24,01,09,5.00
2013,04,24,01,10,5.00
2013,04,24,01,11,5.00
2013,04,24,01,12,5.00
2013,04,24,01,13,5.00
2013,04,24,01,14,5.00
2013,04,24,01,15,5.00
2013,04,24,01,16,5.00
2013,04,24,01,17,5.00
2013,04,24,01,18,5.00
2013,04,24,01,19,4.90
2013,04,24,01,20,4.90
2013,04,24,01,21,4.90
2013,04,24,01,22,4.90
2013,04,24,01,23,4.90
2013,04,24,01,24,4.90
2013,04,24,01,25,4.90
2013,04,24,01,26,4.80
2013,04,24,01,27,4.80
2013,04,24,01,28,4.80
2013,04,24,01,29,4.80
2013,04,24,01,30,4.80
2013,04,24,01,31,4.80
2013,04,24,01,32,4.90
2013,04,24,01,33,4.80
2013,04,24,01,34,4.80
2013,04,24,01,35,4.80
2013,04,24,01,36,4.80
2013,04,24,01,37,4.80
2013,04,24,01,38,4.80
2013,04,24,01,39,4.80
2013,04,24,01,40,4.80
2013,04,24,01,41,4.80
2013,04,24,01,42,4.70
2013,04,24,01,43,4.70
2013,04,24,01,44,4.70
2013,04,24,01,45,4.70
2013,04,24,01,46,4.70
2013,04,24,01,47,4.60
2013,04,24,01,48,4.60
2013,04,24,01,49,4.60
2013,04,24,01,50,4.60
2013,04,24,01,51,4.60
2013,04,24,01,52,4.60
2013,04,24,01,53,4.60
2013,04,24,01,54,4.50
2013,04,24,01,55,4.50
2013,04,24,01,56,4.50
2013,04,24,01,57,4.50
2013,04,24,01,58,4.50
2013,04,24,01,59,4.40
2013,04,24,02,00,4.40
2013,04,24,02,01,4.40
2013,04,24,02,02,4.40
2013,04,24,02,03,4.50
2013,04,24,02,04,4.50
2013,04,24,02,05,4.50
2013,04,24,02,06,4.50
2013,04,24,02,07,4.50
2013,04,24,02,08,4.50
2013,04,24,02,09,4.50
2013,04,24,02,10,4.50
2013,04,24,02,11,4.40
2013,04,24,02,12,4.40
2013,04,24,02,13,4.40
2013,04,24,02,14,4.40
2013,04,24,02,15,4.40
2013,04,24,02,16,4.40
2013,04,24,02,17,4.30
2013,04,24,02,18,4.30
2013,04,24,02,19,4.30
2013,04,24,02,20,4.30
2013,04,24,02,21,4.30
2013,04,24,02,22,4.20
2013,04,24,02,23,4.20
2013,04,24,02,24,4.20
2013,04,24,02,25,4.20
2013,04,24,02,26,4.20
2013,04,24,02,27,4.20
2013,04,24,02,28,4.20
2013,04,24,02,29,4.20
2013,04,24,02,30,4.10
2013,04,24,02,31,4.10
2013,04,24,02,32,4.10
2013,04,24,02,33,4.10
2013,04,24,02,34,4.10
2013,04,24,02,35,4.10
2013,04,24,02,36,4.10
2013,04,24,02,37,4.10
2013,04,24,02,38,4.10
2013,04,24,02,39,4.10
2013,04,24,02,40,4.00
2013,04,24,02,41,4.00
2013,04,24,02,42,4.00
2013,04,24,02,43,4.00
2013,04,24,02,44,3.90
2013,04,24,02,45,3.90
2013,04,24,02,46,3.90
2013,04,24,02,47,3.90
2013,04,24,02,48,3.90
2013,04,24,02,49,3.90
2013,04,24,02,50,3.90
2013,04,24,02,51,3.90
2013,04,24,02,52,3.90
2013,04,24,02,53,3.90
2013,04,24,02,54,3.90
2013,04,24,02,55,3.80
2013,04,24,02,56,3.80
2013,04,24,02,57,3.80
2013,04,24,02,58,3.80
2013,04,24,02,59,3.80
2013,04,24,03,00,3.80
2013,04,24,03,01,3.80
2013,04,24,03,02,3.80
2013,04,24,03,03,3.80
2013,04,24,03,04,3.80
2013,04,24,03,05,3.80
2013,04,24,03,06,3.80
2013,04,24,03,07,3.70
2013,04,24,03,08,3.70
2013,04,24,03,09,3.70
2013,04,24,03,10,3.70
2013,04,24,03,11,3.70
2013,04,24,03,12,3.70
2013,04,24,03,13,3.70
2013,04,24,03,14,3.70
2013,04,24,03,15,3.70
2013,04,24,03,16,3.70
2013,04,24,03,17,3.70
2013,04,24,03,18,3.70
2013,04,24,03,19,3.70
2013,04,24,03,20,3.80
2013,04,24,03,21,3.80
2013,04,24,03,22,3.80
2013,04,24,03,23,3.80
2013,04,24,03,24,3.80
2013,04,24,03,25,3.80
2013,04,24,03,26,3.90
2013,04,24,03,27,3.90
2013,04,24,03,28,3.90
2013,04,24,03,29,3.90
2013,04,24,03,30,3.90
2013,04,24,03,31,4.00
2013,04,24,03,32,4.00
2013,04,24,03,33,4.00
2013,04,24,03,34,4.00
2013,04,24,03,35,4.10
2013,04,24,03,36,4.10
2013,04,24,03,37,4.10
2013,04,24,03,38,4.10
2013,04,24,03,39,4.10
2013,04,24,03,40,4.10
2013,04,24,03,41,4.10
2013,04,24,03,42,4.10
2013,04,24,03,43,4.10
2013,04,24,03,44,4.10
2013,04,24,03,45,4.10
2013,04,24,03,46,4.00
2013,04,24,03,47,4.00
2013,04,24,03,48,4.00
2013,04,24,03,49,4.00
2013,04,24,03,50,3.90
2013,04,24,03,51,3.90
2013,04,24,03,52,3.90
2013,04,24,03,53,3.90
2013,04,24,03,54,3.90
2013,04,24,03,55,3.90
2013,04,24,03,56,3.90
2013,04,24,03,57,3.80
2013,04,24,03,58,3.80
2013,04,24,03,59,3.80
2013,04,24,04,00,3.80
2013,04,24,04,01,3.80
2013,04,24,04,02,3.80
2013,04,24,04,03,3.80
2013,04,24,04,04,3.80
2013,04,24,04,05,3.80
2013,04,24,04,06,3.80
2013,04,24,04,07,3.80
2013,04,24,04,08,3.80
2013,04,24,04,09,3.80
2013,04,24,04,10,3.80
2013,04,24,04,11,3.80
2013,04,24,04,12,3.80
2013,04,24,04,13,3.80
2013,04,24,04,14,3.80
2013,04,24,04,15,3.80
2013,04,24,04,16,3.80
2013,04,24,04,17,3.80
2013,04,24,04,18,3.80
2013,04,24,04,19,3.80
2013,04,24,04,20,3.80
2013,04,24,04,21,3.80
2013,04,24,04,22,3.80
2013,04,24,04,23,3.80
2013,04,24,04,24,3.80
2013,04,24,04,25,3.80
2013,04,24,04,26,3.80
2013,04,24,04,27,3.80
2013,04,24,04,28,3.80
2013,04,24,04,29,3.80
2013,04,24,04,30,3.80
2013,04,24,04,31,3.70
2013,04,24,04,32,3.70
2013,04,24,04,33,3.70
2013,04,24,04,34,3.70
2013,04,24,04,35,3.70
2013,04,24,04,36,3.70
2013,04,24,04,37,3.70
2013,04,24,04,38,3.70
2013,04,24,04,39,3.70
2013,04,24,04,40,3.70
2013,04,24,04,41,3.70
2013,04,24,04,42,3.70
2013,04,24,04,43,3.70
2013,04,24,04,44,3.70
2013,04,24,04,45,3.70
2013,04,24,04,46,3.70
2013,04,24,04,47,3.60
2013,04,24,04,48,3.60
2013,04,24,04,49,3.60
2013,04,24,04,50,3.60
2013,04,24,04,51,3.60
2013,04,24,04,52,3.60
2013,04,24,04,53,3.60
2013,04,24,04,54,3.60
2013,04,24,04,55,3.60
2013,04,24,04,56,3.60
2013,04,24,04,57,3.70
2013,04,24,04,58,3.70
2013,04,24,04,59,3.70
2013,04,24,05,00,3.60
2013,04,24,05,01,3.60
2013,04,24,05,02,3.60
2013,04,24,05,03,3.60
2013,04,24,05,04,3.60
2013,04,24,05,05,3.60
2013,04,24,05,06,3.60
2013,04,24,05,07,3.70
2013,04,24,05,08,3.70
2013,04,24,05,09,3.70
2013,04,24,05,10,3.70
2013,04,24,05,11,3.70
2013,04,24,05,12,3.60
2013,04,24,05,13,3.60
2013,04,24,05,14,3.60
2013,04,24,05,15,3.60
2013,04,24,05,16,3.60
2013,04,24,05,17,3.60
2013,04,24,05,18,3.60
2013,04,24,05,19,3.60
2013,04,24,05,20,3.60
2013,04,24,05,21,3.60
2013,04,24,05,22,3.60
2013,04,24,05,23,3.60
2013,04,24,05,24,3.60
2013,04,24,05,25,3.60
2013,04,24,05,26,3.60
2013,04,24,05,27,3.50
2013,04,24,05,28,3.50
2013,04,24,05,29,3.50
2013,04,24,05,30,3.50
2013,04,24,05,31,3.50
2013,04,24,05,32,3.50
2013,04,24,05,33,3.50
2013,04,24,05,34,3.50
2013,04,24,05,35,3.50
2013,04,24,05,36,3.50
2013,04,24,05,37,3.40
2013,04,24,05,38,3.40
2013,04,24,05,39,3.40
2013,04,24,05,40,3.40
2013,04,24,05,41,3.40
2013,04,24,05,42,3.40
2013,04,24,05,43,3.40
2013,04,24,05,44,3.40
2013,04,24,05,45,3.40
2013,04,24,05,46,3.40
2013,04,24,05,47,3.40
2013,04,24,05,48,3.40
2013,04,24,05,49,3.40
2013,04,24,05,50,3.40
2013,04,24,05,51,3.30
2013,04,24,05,52,3.30
2013,04,24,05,53,3.30
2013,04,24,05,54,3.30
2013,04,24,05,55,3.30
2013,04,24,05,56,3.30
2013,04,24,05,57,3.20
2013,04,24,05,58,3.20
2013,04,24,05,59,3.20
2013,04,24,06,00,3.20
2013,04,24,06,01,3.20
2013,04,24,06,02,3.20
2013,04,24,06,03,3.20
2013,04,24,06,04,3.30
2013,04,24,06,05,3.30
2013,04,24,06,06,3.30
2013,04,24,06,07,3.30
2013,04,24,06,08,3.30
2013,04,24,06,09,3.30
2013,04,24,06,10,3.30
2013,04,24,06,11,3.30
2013,04,24,06,12,3.30
2013,04,24,06,13,3.30
2013,04,24,06,14,3.30
2013,04,24,06,15,3.40
2013,04,24,06,16,3.40
2013,04,24,06,17,3.40
2013,04,24,06,18,3.40
2013,04,24,06,19,3.40
2013,04,24,06,20,3.40
2013,04,24,06,21,3.40
2013,04,24,06,22,3.40
2013,04,24,06,23,3.40
2013,04,24,06,24,3.30
2013,04,24,06,25,3.30
2013,04,24,06,26,3.30
2013,04,24,06,27,3.30
2013,04,24,06,28,3.30
2013,04,24,06,29,3.30
2013,04,24,06,30,3.30
2013,04,24,06,31,3.30
2013,04,24,06,32,3.30
2013,04,24,06,33,3.30
2013,04,24,06,34,3.40
2013,04,24,06,35,3.40
2013,04,24,06,36,3.40
2013,04,24,06,37,3.40
2013,04,24,06,38,3.40
2013,04,24,06,39,3.40
2013,04,24,06,40,3.40
2013,04,24,06,41,3.40
2013,04,24,06,42,3.40
2013,04,24,06,43,3.40
2013,04,24,06,44,3.40
2013,04,24,06,45,3.40
2013,04,24,06,46,3.50
2013,04,24,06,47,3.50
2013,04,24,06,48,3.50
2013,04,24,06,49,3.60
2013,04,24,06,50,3.60
2013,04,24,06,51,3.70
2013,04,24,06,52,3.70
2013,04,24,06,53,3.80
2013,04,24,06,54,3.80
2013,04,24,06,55,3.90
2013,04,24,06,56,4.00
2013,04,24,06,57,4.00
2013,04,24,06,58,4.00
2013,04,24,06,59,4.10
2013,04,24,07,00,4.10
2013,04,24,07,01,4.10
2013,04,24,07,02,4.20
2013,04,24,07,03,4.20
2013,04,24,07,04,4.30
2013,04,24,07,05,4.30
2013,04,24,07,06,4.30
2013,04,24,07,07,4.40
2013,04,24,07,08,4.60
2013,04,24,07,09,4.60
2013,04,24,07,10,4.70
2013,04,24,07,11,4.70
2013,04,24,07,12,4.80
2013,04,24,07,13,4.80
2013,04,24,07,14,4.90
2013,04,24,07,15,4.90
2013,04,24,07,16,5.00
2013,04,24,07,17,5.10
2013,04,24,07,18,5.20
2013,04,24,07,19,5.30
2013,04,24,07,20,5.30
2013,04,24,07,21,5.40
2013,04,24,07,22,5.60
2013,04,24,07,23,5.70
2013,04,24,07,24,5.80
2013,04,24,07,25,5.90
2013,04,24,07,26,6.00
2013,04,24,07,27,6.10
2013,04,24,07,28,6.20
2013,04,24,07,29,6.30
2013,04,24,07,30,6.30
2013,04,24,07,31,6.40
2013,04,24,07,32,6.50
2013,04,24,07,33,6.60
2013,04,24,07,34,6.70
2013,04,24,07,35,6.80
2013,04,24,07,36,7.00
2013,04,24,07,37,7.10
2013,04,24,07,38,7.20
2013,04,24,07,39,7.30
2013,04,24,07,40,7.40
2013,04,24,07,41,7.60
2013,04,24,07,42,7.70
2013,04,24,07,43,7.90
2013,04,24,07,44,8.00
2013,04,24,07,45,8.20
2013,04,24,07,46,8.30
2013,04,24,07,47,8.40
2013,04,24,07,48,8.60
2013,04,24,07,49,8.70
2013,04,24,07,50,8.90
2013,04,24,07,51,9.00
2013,04,24,07,52,9.20
2013,04,24,07,53,9.30
2013,04,24,07,54,9.40
2013,04,24,07,55,9.60
2013,04,24,07,56,9.70
2013,04,24,07,57,9.80
2013,04,24,07,58,9.90
2013,04,24,07,59,9.90
2013,04,24,08,00,10.00
2013,04,24,08,01,10.00
2013,04,24,08,02,10.00
2013,04,24,08,03,10.00
2013,04,24,08,04,10.00
2013,04,24,08,05,10.00
2013,04,24,08,06,10.00
2013,04,24,08,07,10.00
2013,04,24,08,08,10.00
2013,04,24,08,09,10.00
2013,04,24,08,10,10.00
2013,04,24,08,11,10.10
2013,04,24,08,12,10.10
2013,04,24,08,13,10.20
2013,04,24,08,14,10.30
2013,04,24,08,15,10.40
2013,04,24,08,16,10.50
2013,04,24,08,17,10.60
2013,04,24,08,18,10.70
2013,04,24,08,19,10.90
2013,04,24,08,20,11.00
2013,04,24,08,21,11.20
2013,04,24,08,22,11.30
2013,04,24,08,23,11.50
2013,04,24,08,24,11.70
2013,04,24,08,25,11.90
2013,04,24,08,26,12.10
2013,04,24,08,27,12.30
2013,04,24,08,28,12.40
2013,04,24,08,29,12.60
2013,04,24,08,30,12.70
2013,04,24,08,31,12.80
2013,04,24,08,32,12.90
2013,04,24,08,33,13.00
2013,04,24,08,34,13.00
2013,04,24,08,35,13.10
2013,04,24,08,36,13.10
2013,04,24,08,37,13.10
2013,04,24,08,38,13.10
2013,04,24,08,39,13.20
2013,04,24,08,40,13.20
2013,04,24,08,41,13.30
2013,04,24,08,42,13.40
2013,04,24,08,43,13.50
2013,04,24,08,44,13.50
2013,04,24,08,45,13.60
2013,04,24,08,46,13.60
2013,04,24,08,47,13.60
2013,04,24,08,48,13.70
2013,04,24,08,49,13.60
2013,04,24,08,50,13.60
2013,04,24,08,51,13.50
2013,04,24,08,52,13.50
2013,04,24,08,53,13.40
2013,04,24,08,54,13.40
2013,04,24,08,55,13.40
2013,04,24,08,56,13.40
2013,04,24,08,57,13.30
2013,04,24,08,58,13.30
2013,04,24,08,59,13.30
2013,04,24,09,00,13.30
2013,04,24,09,01,13.30
2013,04,24,09,02,13.40
2013,04,24,09,03,13.40
2013,04,24,09,04,13.40
2013,04,24,09,05,13.40
2013,04,24,09,06,13.50
2013,04,24,09,07,13.50
2013,04,24,09,08,13.60
2013,04,24,09,09,13.70
2013,04,24,09,10,13.70
2013,04,24,09,11,13.80
2013,04,24,09,12,13.80
2013,04,24,09,13,13.90
2013,04,24,09,14,13.90
2013,04,24,09,15,13.90
2013,04,24,09,16,14.00
2013,04,24,09,17,14.00
2013,04,24,09,18,14.00
2013,04,24,09,19,14.00
2013,04,24,09,20,14.00
2013,04,24,09,21,13.90
2013,04,24,09,22,13.90
2013,04,24,09,23,13.90
2013,04,24,09,24,14.00
2013,04,24,09,25,14.00
2013,04,24,09,26,14.10
2013,04,24,09,27,14.20
2013,04,24,09,28,14.20
2013,04,24,09,29,14.20
2013,04,24,09,30,14.20
2013,04,24,09,31,14.20
2013,04,24,09,32,14.20
2013,04,24,09,33,14.20
2013,04,24,09,34,14.10
2013,04,24,09,35,14.10
2013,04,24,09,36,14.10
2013,04,24,09,37,14.10
2013,04,24,09,38,14.10
2013,04,24,09,39,14.10
2013,04,24,09,40,14.00
2013,04,24,09,41,14.00
2013,04,24,09,42,14.10
2013,04,24,09,43,14.00
2013,04,24,09,44,14.00
2013,04,24,09,45,14.10
2013,04,24,09,46,14.10
2013,04,24,09,47,14.20
2013,04,24,09,48,14.20
2013,04,24,09,49,14.30
2013,04,24,09,50,14.30
2013,04,24,09,51,14.20
2013,04,24,09,52,14.10
2013,04,24,09,53,14.10
2013,04,24,09,54,14.10
2013,04,24,09,55,14.10
2013,04,24,09,56,14.10
2013,04,24,09,57,14.10
2013,04,24,09,58,14.20
2013,04,24,09,59,14.30
2013,04,24,10,00,14.30
2013,04,24,10,01,14.40
2013,04,24,10,02,14.50
2013,04,24,10,03,14.60
2013,04,24,10,04,14.60
2013,04,24,10,05,14.70
2013,04,24,10,06,14.80
2013,04,24,10,07,15.00
2013,04,24,10,08,15.10
2013,04,24,10,09,15.20
2013,04,24,10,10,15.20
2013,04,24,10,11,15.30
2013,04,24,10,12,15.30
2013,04,24,10,13,15.30
2013,04,24,10,14,15.30
2013,04,24,10,15,15.30
2013,04,24,10,16,15.30
2013,04,24,10,17,15.40
2013,04,24,10,18,15.50
2013,04,24,10,19,15.50
2013,04,24,10,20,15.40
2013,04,24,10,21,15.30
2013,04,24,10,22,15.20
2013,04,24,10,23,15.20
2013,04,24,10,24,15.20
2013,04,24,10,25,15.20
2013,04,24,10,26,15.30
2013,04,24,10,27,15.40
2013,04,24,10,28,15.50
2013,04,24,10,29,15.60
2013,04,24,10,30,15.60
2013,04,24,10,31,15.60
2013,04,24,10,32,15.50
2013,04,24,10,33,15.40
2013,04,24,10,34,15.40
2013,04,24,10,35,15.50
2013,04,24,10,36,15.60
2013,04,24,10,37,15.60
2013,04,24,10,38,15.60
2013,04,24,10,39,15.60
2013,04,24,10,40,15.60
2013,04,24,10,41,15.50
2013,04,24,10,42,15.50
2013,04,24,10,43,15.50
2013,04,24,10,44,15.50
2013,04,24,10,45,15.60
2013,04,24,10,46,15.60
2013,04,24,10,47,15.60
2013,04,24,10,48,15.60
2013,04,24,10,49,15.70
2013,04,24,10,50,15.80
2013,04,24,10,51,15.80
2013,04,24,10,52,15.70
2013,04,24,10,53,15.70
2013,04,24,10,54,15.60
2013,04,24,10,55,15.60
2013,04,24,10,56,15.50
2013,04,24,10,57,15.40
2013,04,24,10,58,15.50
2013,04,24,10,59,15.50
2013,04,24,11,00,15.60
2013,04,24,11,01,15.60
2013,04,24,11,02,15.60
2013,04,24,11,03,15.50
2013,04,24,11,04,15.50
2013,04,24,11,05,15.40
2013,04,24,11,06,15.40
2013,04,24,11,07,15.40
2013,04,24,11,08,15.40
2013,04,24,11,09,15.50
2013,04,24,11,10,15.50
2013,04,24,11,11,15.50
2013,04,24,11,12,15.50
2013,04,24,11,13,15.60
2013,04,24,11,14,15.60
2013,04,24,11,15,15.60
2013,04,24,11,16,15.60
2013,04,24,11,17,15.60
2013,04,24,11,18,15.60
2013,04,24,11,19,15.60
2013,04,24,11,20,15.60
2013,04,24,11,21,15.70
2013,04,24,11,22,15.70
2013,04,24,11,23,15.80
2013,04,24,11,24,15.70
2013,04,24,11,25,15.60
2013,04,24,11,26,15.60
2013,04,24,11,27,15.50
2013,04,24,11,28,15.50
2013,04,24,11,29,15.50
2013,04,24,11,30,15.50
2013,04,24,11,31,15.40
2013,04,24,11,32,15.40
2013,04,24,11,33,15.40
2013,04,24,11,34,15.40
2013,04,24,11,35,15.50
2013,04,24,11,36,15.50
2013,04,24,11,37,15.60
2013,04,24,11,38,15.60
2013,04,24,11,39,15.70
2013,04,24,11,40,15.70
2013,04,24,11,41,15.70
2013,04,24,11,42,15.70
2013,04,24,11,43,15.70
2013,04,24,11,44,15.70
2013,04,24,11,45,15.80
2013,04,24,11,46,15.80
2013,04,24,11,47,15.80
2013,04,24,11,48,15.70
2013,04,24,11,49,15.70
2013,04,24,11,50,15.70
2013,04,24,11,51,15.70
2013,04,24,11,52,15.70
2013,04,24,11,53,15.70
2013,04,24,11,54,15.70
2013,04,24,11,55,15.80
2013,04,24,11,56,15.80
2013,04,24,11,57,15.80
2013,04,24,11,58,15.90
2013,04,24,11,59,16.00
2013,04,24,12,00,16.10
2013,04,24,12,01,16.10
2013,04,24,12,02,16.10
2013,04,24,12,03,16.00
2013,04,24,12,04,16.00
2013,04,24,12,05,15.90
2013,04,24,12,06,15.80
2013,04,24,12,07,15.80
2013,04,24,12,08,15.70
2013,04,24,12,09,15.70
2013,04,24,12,10,15.70
2013,04,24,12,11,15.60
2013,04,24,12,12,15.60
2013,04,24,12,13,15.60
2013,04,24,12,14,15.60
2013,04,24,12,15,15.70
2013,04,24,12,16,15.70
2013,04,24,12,17,15.70
2013,04,24,12,18,15.60
2013,04,24,12,19,15.60
2013,04,24,12,20,15.60
2013,04,24,12,21,15.60
2013,04,24,12,22,15.60
2013,04,24,12,23,15.60
2013,04,24,12,24,15.60
2013,04,24,12,25,15.60
2013,04,24,12,26,15.60
2013,04,24,12,27,15.60
2013,04,24,12,28,15.60
2013,04,24,12,29,15.60
2013,04,24,12,30,15.60
2013,04,24,12,31,15.60
2013,04,24,12,32,15.60
2013,04,24,12,33,15.60
2013,04,24,12,34,15.70
2013,04,24,12,35,15.70
2013,04,24,12,36,15.80
2013,04,24,12,37,16.00
2013,04,24,12,38,16.20
2013,04,24,12,39,16.30
2013,04,24,12,40,16.40
2013,04,24,12,41,16.40
2013,04,24,12,42,16.40
2013,04,24,12,43,16.40
2013,04,24,12,44,16.40
2013,04,24,12,45,16.40
2013,04,24,12,46,16.30
2013,04,24,12,47,16.30
2013,04,24,12,48,16.30
2013,04,24,12,49,16.30
2013,04,24,12,50,16.40
2013,04,24,12,51,16.50
2013,04,24,12,52,16.60
2013,04,24,12,53,16.70
2013,04,24,12,54,16.80
2013,04,24,12,55,16.80
2013,04,24,12,56,16.90
2013,04,24,12,57,16.90
2013,04,24,12,58,16.80
2013,04,24,12,59,16.80
2013,04,24,13,00,16.70
2013,04,24,13,01,16.60
2013,04,24,13,02,16.60
2013,04,24,13,03,16.60
2013,04,24,13,04,16.60
2013,04,24,13,05,16.60
2013,04,24,13,06,16.60
2013,04,24,13,07,16.50
2013,04,24,13,08,16.60
2013,04,24,13,09,16.70
2013,04,24,13,10,16.80
2013,04,24,13,11,16.90
2013,04,24,13,12,17.00
2013,04,24,13,13,17.00
2013,04,24,13,14,16.90
2013,04,24,13,15,16.80
2013,04,24,13,16,16.70
2013,04,24,13,17,16.80
2013,04,24,13,18,16.80
2013,04,24,13,19,16.80
2013,04,24,13,20,16.90
2013,04,24,13,21,16.90
2013,04,24,13,22,16.90
2013,04,24,13,23,16.90
2013,04,24,13,24,16.90
2013,04,24,13,25,16.90
2013,04,24,13,26,16.80
2013,04,24,13,27,16.80
2013,04,24,13,28,16.90
2013,04,24,13,29,16.90
2013,04,24,13,30,16.90
2013,04,24,13,31,17.00
2013,04,24,13,32,17.00
2013,04,24,13,33,17.10
2013,04,24,13,34,17.10
2013,04,24,13,35,17.10
2013,04,24,13,36,17.10
2013,04,24,13,37,17.20
2013,04,24,13,38,17.20
2013,04,24,13,39,17.20
2013,04,24,13,40,17.30
2013,04,24,13,41,17.40
2013,04,24,13,42,17.40
2013,04,24,13,43,17.40
2013,04,24,13,44,17.40
2013,04,24,13,45,17.40
2013,04,24,13,46,17.40
2013,04,24,13,47,17.40
2013,04,24,13,48,17.40
2013,04,24,13,49,17.50
2013,04,24,13,50,17.60
2013,04,24,13,51,17.60
2013,04,24,13,52,17.60
2013,04,24,13,53,17.60
2013,04,24,13,54,17.50
2013,04,24,13,55,17.50
2013,04,24,13,56,17.50
2013,04,24,13,57,17.50
2013,04,24,13,58,17.40
2013,04,24,13,59,17.40
2013,04,24,14,00,17.20
2013,04,24,14,01,17.10
2013,04,24,14,02,17.10
2013,04,24,14,03,17.10
2013,04,24,14,04,17.10
2013,04,24,14,05,17.10
2013,04,24,14,06,17.20
2013,04,24,14,07,17.20
2013,04,24,14,08,17.30
2013,04,24,14,09,17.30
2013,04,24,14,10,17.20
2013,04,24,14,11,17.10
2013,04,24,14,12,17.00
2013,04,24,14,13,17.00
2013,04,24,14,14,16.90
2013,04,24,14,15,16.90
2013,04,24,14,16,16.90
2013,04,24,14,17,16.80
2013,04,24,14,18,16.80
2013,04,24,14,19,16.80
2013,04,24,14,20,16.80
2013,04,24,14,21,16.80
2013,04,24,14,22,16.90
2013,04,24,14,23,16.80
2013,04,24,14,24,16.80
2013,04,24,14,25,16.80
2013,04,24,14,26,16.90
2013,04,24,14,27,16.90
2013,04,24,14,28,16.90
2013,04,24,14,29,16.80
2013,04,24,14,30,16.80
2013,04,24,14,31,16.80
2013,04,24,14,32,16.80
2013,04,24,14,33,16.80
2013,04,24,14,34,16.80
2013,04,24,14,35,16.80
2013,04,24,14,36,16.80
2013,04,24,14,37,16.80
2013,04,24,14,38,16.80
2013,04,24,14,39,16.80
2013,04,24,14,40,16.90
2013,04,24,14,41,16.90
2013,04,24,14,42,16.90
2013,04,24,14,43,16.90
2013,04,24,14,44,16.90
2013,04,24,14,45,16.90
2013,04,24,14,46,16.90
2013,04,24,14,47,16.90
2013,04,24,14,48,16.80
2013,04,24,14,49,16.80
2013,04,24,14,50,16.90
2013,04,24,14,51,16.90
2013,04,24,14,52,16.90
2013,04,24,14,53,17.00
2013,04,24,14,54,17.10
2013,04,24,14,55,17.10
2013,04,24,14,56,17.10
2013,04,24,14,57,17.10
2013,04,24,14,58,17.10
2013,04,24,14,59,17.10
2013,04,24,15,00,17.10
2013,04,24,15,01,17.20
2013,04,24,15,02,17.20
2013,04,24,15,03,17.20
2013,04,24,15,04,17.20
2013,04,24,15,05,17.20
2013,04,24,15,06,17.20
2013,04,24,15,07,17.20
2013,04,24,15,08,17.20
2013,04,24,15,09,17.10
2013,04,24,15,10,17.20
2013,04,24,15,11,17.20
2013,04,24,15,12,17.30
2013,04,24,15,13,17.40
2013,04,24,15,14,17.40
2013,04,24,15,15,17.40
2013,04,24,15,16,17.40
2013,04,24,15,17,17.30
2013,04,24,15,18,17.30
2013,04,24,15,19,17.30
2013,04,24,15,20,17.40
2013,04,24,15,21,17.40
2013,04,24,15,22,17.40
2013,04,24,15,23,17.30
2013,04,24,15,24,17.20
2013,04,24,15,25,17.20
2013,04,24,15,26,17.30
2013,04,24,15,27,17.30
2013,04,24,15,28,17.40
2013,04,24,15,29,17.40
2013,04,24,15,30,17.50
2013,04,24,15,31,17.50
2013,04,24,15,32,17.50
2013,04,24,15,33,17.40
2013,04,24,15,34,17.30
2013,04,24,15,35,17.20
2013,04,24,15,36,17.10
2013,04,24,15,37,17.10
2013,04,24,15,38,17.00
2013,04,24,15,39,17.00
2013,04,24,15,40,17.00
2013,04,24,15,41,17.10
2013,04,24,15,42,17.20
2013,04,24,15,43,17.20
2013,04,24,15,44,17.20
2013,04,24,15,45,17.20
2013,04,24,15,46,17.30
2013,04,24,15,47,17.40
2013,04,24,15,48,17.50
2013,04,24,15,49,17.60
2013,04,24,15,50,17.70
2013,04,24,15,51,17.70
2013,04,24,15,52,17.60
2013,04,24,15,53,17.50
2013,04,24,15,54,17.40
2013,04,24,15,55,17.20
2013,04,24,15,56,17.20
2013,04,24,15,57,17.10
2013,04,24,15,58,17.10
2013,04,24,15,59,17.00
2013,04,24,16,00,17.00
2013,04,24,16,01,17.00
2013,04,24,16,02,17.00
2013,04,24,16,03,17.00
2013,04,24,16,04,16.90
2013,04,24,16,05,16.90
2013,04,24,16,06,16.90
2013,04,24,16,07,16.90
2013,04,24,16,08,16.90
2013,04,24,16,09,16.90
2013,04,24,16,10,16.80
2013,04,24,16,11,16.80
2013,04,24,16,12,16.80
2013,04,24,16,13,16.80
2013,04,24,16,14,16.70
2013,04,24,16,15,16.70
2013,04,24,16,16,16.70
2013,04,24,16,17,16.70
2013,04,24,16,18,16.70
2013,04,24,16,19,16.70
2013,04,24,16,20,16.70
2013,04,24,16,21,16.60
2013,04,24,16,22,16.50
2013,04,24,16,23,16.40
2013,04,24,16,24,16.40
2013,04,24,16,25,16.40
2013,04,24,16,26,16.30
2013,04,24,16,27,16.30
2013,04,24,16,28,16.20
2013,04,24,16,29,16.20
2013,04,24,16,30,16.20
2013,04,24,16,31,16.30
2013,04,24,16,32,16.30
2013,04,24,16,33,16.40
2013,04,24,16,34,16.40
2013,04,24,16,35,16.40
2013,04,24,16,36,16.40
2013,04,24,16,37,16.40
2013,04,24,16,38,16.40
2013,04,24,16,39,16.40
2013,04,24,16,40,16.40
2013,04,24,16,41,16.40
2013,04,24,16,42,16.40
2013,04,24,16,43,16.40
2013,04,24,16,44,16.40
2013,04,24,16,45,16.40
2013,04,24,16,46,16.40
2013,04,24,16,47,16.40
2013,04,24,16,48,16.40
2013,04,24,16,49,16.40
2013,04,24,16,50,16.30
2013,04,24,16,51,16.30
2013,04,24,16,52,16.30
2013,04,24,16,53,16.30
2013,04,24,16,54,16.30
2013,04,24,16,55,16.40
2013,04,24,16,56,16.50
2013,04,24,16,57,16.60
2013,04,24,16,58,16.60
2013,04,24,16,59,16.70
2013,04,24,17,00,16.70
2013,04,24,17,01,16.60
2013,04,24,17,02,16.50
2013,04,24,17,03,16.40
2013,04,24,17,04,16.40
2013,04,24,17,05,16.30
2013,04,24,17,06,16.30
2013,04,24,17,07,16.30
2013,04,24,17,08,16.30
2013,04,24,17,09,16.30
2013,04,24,17,10,16.20
2013,04,24,17,11,16.20
2013,04,24,17,12,16.20
2013,04,24,17,13,16.10
2013,04,24,17,14,16.10
2013,04,24,17,15,16.10
2013,04,24,17,16,16.10
2013,04,24,17,17,16.20
2013,04,24,17,18,16.30
2013,04,24,17,19,16.30
2013,04,24,17,20,16.40
2013,04,24,17,21,16.50
2013,04,24,17,22,16.60
2013,04,24,17,23,16.70
2013,04,24,17,24,16.80
2013,04,24,17,25,16.80
2013,04,24,17,26,16.80
2013,04,24,17,27,16.80
2013,04,24,17,28,16.70
2013,04,24,17,29,16.70
2013,04,24,17,30,16.60
2013,04,24,17,31,16.50
2013,04,24,17,32,16.40
2013,04,24,17,33,16.30
2013,04,24,17,34,16.20
2013,04,24,17,35,16.10
2013,04,24,17,36,16.10
2013,04,24,17,37,16.10
2013,04,24,17,38,16.10
2013,04,24,17,39,16.10
2013,04,24,17,40,16.00